sat.trackr.live / text

‹ back to catalog

KUIPER-00221

NORAD 67147 · 2025-301Q

PAYLOAD ACTIVE UNKNOWN

§ Identity

Operator
Country
US
Launch date
2025-12-16
Launch site
AFETR
Launch vehicle
Mass (kg)
RCS (m²)

External: N2YO · Heavens-Above · Gunter

§ Orbital elements

Epoch: 2026-05-25T04:30:35.792064Z

Period
97.30 min
Inclination
51.9005°
Eccentricity
0.0000769
Mean motion
14.79932930 rev/d
Perigee alt
629.0 km
Apogee alt
630.1 km
Semi-major
7,007.7 km
B*
4.1370e-4
RAAN
102.3426°
Arg perigee
73.0894°
Mean anomaly
287.0152°
Rev number
2,485

§ Raw data

KUIPER-002211 67147U 25301Q   26145.18791426  .00002934  00000+0  41370-3 0  99972 67147  51.9005 102.3426 0000769  73.0894 287.0152 14.79932930 24859

JSON: /api/v1/satellites/67147 · /tle

For live sub-satellite position, see the globe view (requires WebGL).

§ Visibility from observer

Set your observer location to see the next 7 days of passes ≥ 10°. The values pass through the URL so the page stays shareable.

No JS? Fill the form by hand. The geolocation button needs JavaScript.